Regional Weather Roundup
Issued by NWS

Home | Current Version | Previous Version | Text Only | Print | Product List | Glossary Off
Versions: 1 2 3 4 5 6 7 8 9 10 11 12 13 14 15 16 17 18 19 20 21 22 23 24 25 26 27 28 29 30 31 32 33 34 35 36 37 38 39 40 41 42 43 44 45 46 47 48 49 50

000
ASUS43 KLOT 020200
RWRIL

ILLINOIS REGIONAL WEATHER ROUNDUP
NATIONAL WEATHER SERVICE CHICAGO/ROMEOVILLE IL
900 PM CDT FRI AUG 01 2014

NOTE: "FAIR" INDICATES FEW OR NO CLOUDS BELOW 12,000 FEET WITH NO
SIGNIFICANT WEATHER AND/OR OBSTRUCTIONS TO VISIBILITY.

* THESE STATIONS ARE NOT UNDER NWS QUALITY CONTROL. THEY ALSO MAY NOT
  REPORT WEATHER SUCH AS PRECIPITATION OR FOG.

ILZ001-002-007-009-015-016-024-020300-
NORTHWEST ILLINOIS

CITY           SKY/WX    TMP DP  RH WIND       PRES   REMARKS
MOLINE         PTCLDY    70  65  84 SE8       30.08R
STERLING*      MOCLDY    70  61  73 SW3       30.09S
$$

ILZ003-004-008-010-011-017-018-020300-
NORTH CENTRAL ILLINOIS

CITY           SKY/WX    TMP DP  RH WIND       PRES   REMARKS
ROCKFORD       TSTM      64  59  83 E17       30.16R
FREEPORT*      MOCLDY    73  61  66 NE14      30.13R
$$

ILZ005-006-012>014-019>023-020300-
NORTHEAST ILLINOIS

CITY           SKY/WX    TMP DP  RH WIND       PRES   REMARKS
CHICAGO-OHARE  MOCLDY    70  58  65 NW7       30.10R
CHICAGO-MIDWAY CLOUDY    70  60  70 NW3       30.09R
AURORA         CLOUDY    66  61  84 CALM      30.11R
WAUKEGAN       CLOUDY    65  57  75 NW8       30.13R THUNDER
DUPAGE AIRPORT MOCLDY    68  60  75 CALM      30.11R
WHEELING       MOCLDY    73  57  57 NW13      30.13R
NORTHERLY ISL    N/A     72  57  59 W8          N/A
$$

LMZ740>746-020300-
SOUTHERN LAKE MICHIGAN

STATION/POSITION SKY/WX   TEMP    WIND        PRES    VSBY  WAVE
                          AIR SEA DIR/SP/G                  HT/PER
                          (F)     (DEG/KT/KT) (MB)    (MI)  (FT/S)
SOUTHERN BUOY              66 65  240/  4/ 12 1018.9R         0
WAUKEGAN HARBOR            71     360/ 16/ 20   N/A
HARRISON CRIB              74     240/  8/ 10   N/A
BURNHAM HARBOR             71     280/  6/  8   N/A
CALUMET HARBOR             71     230/  5/  6 1017.5R
BURNS HARBOR               72     170/  3/  7   N/A
MICHIGAN CITY              72     160/  4/  6   N/A
MICHIGAN CITY 6N           70 69  190/  4/  6   N/A           0
ST. JOSEPH                 69 70   50/  2/  2   N/A           1
$$

ILZ025>027-034>036-040-047-049-050-058-095>099-020300-
WEST-CENTRAL ILLINOIS

CITY           SKY/WX    TMP DP  RH WIND       PRES   REMARKS
QUINCY         CLEAR     69  62  78 S5        30.08R
$$

ILZ028>032-037-038-041>044-048-051>054-059>061-020300-
CENTRAL ILLINOIS

CITY           SKY/WX    TMP DP  RH WIND       PRES   REMARKS
DECATUR        MOCLDY    64  61  90 N5        30.09S
PEORIA         CLOUDY    66  63  90 CALM      30.10S FOG
SPRINGFIELD    MOCLDY    66  63  90 N6        30.09R
TAYLORVILLE    NOT AVBL
$$

ILZ033-039-045-046-055>057-062-063-020300-
EAST-CENTRAL ILLINOIS

CITY           SKY/WX    TMP DP  RH WIND       PRES   REMARKS
CHAMPAIGN      MOCLDY    65  62  90 N5        30.10R
MATTOON          N/A     65  65 100 N5        30.08S
$$

ILZ079-100>102-020300-
SOUTHWEST ILLINOIS

CITY           SKY/WX    TMP DP  RH WIND       PRES   REMARKS
ALTON          MOCLDY    68  66  94 E5        30.09R
CAHOKIA*       CLOUDY    69  65  86 E3        30.08R
$$

ILZ064>066-069>071-074>076-080>082-084>086-088>090-092>094-020300-
SOUTH-CENTRAL ILLINOIS

CITY           SKY/WX    TMP DP  RH WIND       PRES   REMARKS
CARBONDALE     CLOUDY    71  60  68 N7        30.07R
MT. VERNON     CLOUDY    66  59  77 N5        30.08R
$$

ILZ067-068-072-073-078-083-087-091-020300-
SOUTHEAST ILLINOIS

CITY           SKY/WX    TMP DP  RH WIND       PRES   REMARKS
LAWRENCEVILLE  MOCLDY    70  63  78 N15       30.07S
FLORA*         MOCLDY    65  64  94 E3        30.08F
$$

ABBREVIATIONS USED IN REMARKS
   TC - TEMPERATURE IN CELSIUS
  WCI - WIND CHILL INDEX
   HX - HEAT INDEX
  VSB - VISIBILITY
$$



USA.gov is the U.S. government's official web portal to all federal, state and local government web resources and services.